Location: Faicchio
(41.2833°N, 14.4833°E)
Time: 06:39:21
(UTC+00:00)

SL-4 R/B - Pass Details

Date: 15 June 2025
Orbit: 393 x 546 km, 51.6° (Epoch: 16 July)

Event Time Altitude Azimuth Distance (km) Brightness Sun altitude
Rises 01:38:04 0° 306° (NW) 2,646 5.5 -16.0°
Reaches altitude 10° 01:40:41 10° 321° (NW) 1,731 4.7 -15.7°
Maximum altitude 01:43:50 23° 15° (NNE) 1,105 4.4 -15.4°
Drops below altitude 10° 01:46:52 10° 69° (ENE) 1,654 5.4 -15.0°
Sets 01:49:18 0° 85° (E) 2,497 6.1 -14.7°
